SKYSAT-C1

Last updated on Fri Jul 11 2025 00:02:28 GMT+0000 (Coordinated Universal Time)

1 41601U 16040C 25191.59432002 .00004339 00000+0 15531-3 0 9992 2 41601 97.0037 237.5080 0003849 140.4049 219.7474 15.29257239505549
UTC large
Height (km)
Speed (km/s)
/
Latitude / Longitude
Inclination (degrees)
Orbital Period (minutes)
Azimuth
Elevation
Range (km)
Doppler Factor

Next 0 passes for location: London (51.5072 / 0.1276)

Sorry there are no passes over London.